Retour au catalogue

FENGYUN 1C DEB

ActifSSO
NORAD 32141·DEBRIS·🇨🇳 China

Lancé May 10, 1999 depuis Taiyuan Satellite Launch Center

Loading…

Prochains Passages (prochaines 24 heures)

TLE

PériméSource: Space-Track

Époque: Sep 3, 2026, 06:41 UTC

1 32141U 99025CSK 26246.27868941  .00000760  00000-0  49563-3 0  9994
2 32141  98.7515 243.7619 0073230 185.9819 174.0481 14.03973915986556

Suivez FENGYUN 1C DEB en temps réel avec AllMySat

Download on the App Store